SL-8 DEB, 21209

Orbit data source: Space-Track

SL-8 DEB, 21209 is space debris in LEO originally from a launch on Tue, 12 Feb 1991 UTC launched from the Plesetsk Missile And Space Complex (PKMTR). Debris objects in space refer to the collection of defunct objects orbiting the Earth. Examples of debris include non-operational satellites, rocket bodies, and fragments generated from explosions, collisions, or faulty payload assembly.

Loading next visibility...
Identifier
21209, 1991-009BC
Orbit
LEO
Country
Flag of CISCIS
Related business
Manufacturer
Unknown
Mission
Spacecraft
Bus & Motor
Unknown
Mass
Unknown
Launch date (UTC)
1991-02-12 (35 years ago)
Launch vehicle
Unknown
Launch site
Plesetsk Missile And Space Complex (PKMTR)
Object type
Payload
Rocket body
Debris
Shape & HBR
Unknown shape, 0.2 m
Radar Cross Section
Medium (>0.1 m² and <1 m²)

Expand to show TLE details & history
Last TLE update: 2 days ago

TLE from 2 days ago
0 SL-8 DEB
1 21209U 91009BC  26171.45937975 -.00000002  00000-0  10623-3 0  9997
2 21209  74.0388  68.1356 0134300 146.3625  35.1421 12.23760201573693
Epoch: 2026-06-20T11:01Z
TLE epoch observation values (Epoch: 2026-06-20T11:01:30.410Z)
Latitude
-2.42341°
Longitude
174.77535°
Altitude
1,492.017 km
Speed
7.157 km/s
True Right ascension
16h 35m 18s
True Declination
-2° 24' 37"
Sunlit
Object was in full shadow at epoch
Visualization orbit readout
Latitude
Unknown
Longitude
Unknown
Altitude
Unknown
Speed
Unknown
Apparent Right ascension
Unknown
Apparent Declination
Unknown
Sunlit
N/A
Visualization observer readout
Local Sidereal Time
05:18:04
Azimuth
Unknown
Elevation
Unknown
Doppler factor
Unknown
Orbital elements
Apogee altitude
1,680.868 km
Perigee altitude
1,467.272 km
Semi-major axis
7,952.207 km
Eccentricity
0.01343
Inclination
74.0388°
RAAN
68.1356°
Arg. of periapsis
146.3625°
True anomaly
36.04022°
Mean anomaly
35.1421°
Eccentric anomaly
35.58992°
Mean motion
3.06064 °/min
Orbital period
117.62 mins
BSTAR
0.00010623
Loading maneuver chart data...
Computing Atmospheric mass density...
Loading historical data...
Loading historical data...
Loading historical data...
Loading historical data...
Loading historical data...
Loading historical data...
Loading historical data...

Documentation

Showing up to 5 results
|